Location: Squirrel Cove
(50.1074°N, 124.9139°W)
Time: 08:38:02
(UTC-08:00)

X-37B - Visible Passes

Search period start: 03 December 2021 00:00
Search period end: 13 December 2021 00:00
Orbit: 330 x 341 km, 45.0° (Epoch: 20 November)

Date Brightness Start Highest point End Pass type
(mag) Time Alt. Az. Time Alt. Az. Time Alt. Az.
07 Dec 3.0 18:24:41 10° S 18:25:30 13° S 18:25:30 13° S visible
08 Dec 3.0 18:44:07 10° SW 18:45:05 16° SSW 18:45:05 16° SSW visible
09 Dec 2.8 17:30:06 10° S 17:31:40 14° SSE 17:33:14 10° ESE visible
09 Dec 3.5 19:04:06 10° SW 19:04:38 14° SW 19:04:38 14° SW visible
10 Dec 2.3 17:49:32 10° SW 17:51:49 21° SSE 17:52:57 17° SE visible
11 Dec 1.8 18:09:32 10° SW 18:12:02 27° S 18:12:29 26° SSE visible
12 Dec 2.4 16:54:58 10° SW 16:57:15 21° SSE 16:59:31 10° ESE visible
12 Dec 2.0 18:29:44 10° WSW 18:32:02 28° SSW 18:32:02 28° SSW visible
